User: anonymous
Location: Caltech
(34.1382°N, 118.1253°W)
Time: 09:15:16
(UTC-07:00)
Language:

Gbstr 26 Del rocket - Orbit

View from above orbital plane
View from above orbital plane
View from above satellite
View from above satellite

Ground track
Ground track

The orbit data is extracted from the following two-line orbital elements,

1 25876U 99041E   14265.14766748  .00001166  00000-0  24291-3 0  4778
2 25876 051.7639 295.0468 0540410 358.8955 038.7633 14.02202720774325
Epoch (UTC): 22 September 2014 03:32:38
Eccentricity: 0.0540410
inclination: 51.7639°
perigee height: 493 km
apogee height: 1279 km
right ascension of ascending node: 295.0468°
argument of perigee: 358.8955°
revolutions per day: 14.02202720
mean anomaly at epoch: 38.7633°
orbit number at epoch: 77432

The dashed part of the orbit path shows where the satellite is in the earth's shadow,  

DLR